Location: Newark
(52.3500°N, 175.9667°E)
Time: 19:26:46
(UTC+00:00)

N. Korean satellite - Pass Details

Date: 17 November 2019
Orbit: 456 x 506 km, 97.2° (Epoch: 05 December)

Event Time Altitude Azimuth Distance (km) Brightness Sun altitude
Rises 17:56:56 0° 17° (NNE) 2,625 10.4 -15.6°
Reaches altitude 10° 17:59:05 10° 23° (NNE) 1,733 9.5 -15.3°
Maximum altitude 18:02:43 47° 99° (E) 674 7.7 -14.7°
Drops below altitude 10° 18:06:17 10° 175° (S) 1,703 9.6 -14.2°
Sets 18:08:23 0° 181° (S) 2,575 10.4 -13.9°
